Simultaneous Nadir Overpasses (SNOs) Predictions

Prediction of SNOs between LANDSAT-8 and METOP-A Satellite Orbit:

Table of predicted SNOs for the next 14.0 days since TLE Epoch: 2/5/2016
Index Date (LANDSAT-8) Time (LANDSAT-8) Lat,Lon (LANDSAT-8) SZA (LANDSAT-8 ) Date (METOP-A) Time (METOP-A) Lat,Lon (METOP-A) SZA (METOP-A ) Distance(km) Time Diff (sec)
1 02/06/2016 02:40:59 -81.10, -0.89 81.50 02/06/2016 02:39:55 -81.11, -0.74 81.50 2.61 64
2 02/06/2016 03:30:24 81.13, 167.21 98.56 02/06/2016 03:30:34 81.13, 167.40 98.59 3.31 10
3 02/08/2016 22:15:13 -81.10, 65.57 82.37 02/08/2016 22:14:18 -81.10, 65.45 82.40 2.10 55
4 02/08/2016 23:04:38 81.13,-126.36 97.69 02/08/2016 23:04:57 81.13,-126.44 97.68 1.45 19
5 02/11/2016 17:49:27 -81.10, 131.97 83.28 02/11/2016 17:48:40 -81.10, 131.99 83.29 0.56 47
6
